Istanbul, Turkey

8:10 AM +03 on December 04, 2016 (GMT +0300)
Ataturk

Weather History for LTBA - October, 2012

Change the Weather History Date:

Thursday, October 25, 2012

  Actual Average Record
Temperature  
Mean Temperature 66 °F -  
Max Temperature 70 °F 62 °F 70 °F (2012)
Min Temperature 61 °F 52 °F 48 °F (1996)
Growing Degree Days 16 (Base 50)    
Moisture  
Dew Point 51 °F    
Average Humidity 60    
Maximum Humidity 72    
Minimum Humidity 40    
Precipitation  
Precipitation 0.00 in - - ()
Sea Level Pressure  
Sea Level Pressure 29.96 in    
Wind  
Wind Speed 7 mph ()    
Max Wind Speed 12 mph    
Max Gust Speed -    
Visibility 6.2 miles    
Events      
Averages and records for this station are not official NWS values.
T = Trace of Precipitation, MM = Missing Value Source: Averaged Metar Reports

Daily Weather History Graph

Daily Weather History Graph

Search for Another Location

Airport or City:

Trip Planner

Search our weather history database for the weather conditions in past years. The results will help you decide how hot, cold, wet, or windy it might be!

Date:

Astronomy

Oct. 25, 2012 Rise Set
Actual Time 7:27 AM EEST 6:09 PM EEST
Civil Twilight 6:59 AM EEST 6:37 PM EEST
Nautical Twilight 6:27 AM EEST 7:09 PM EEST
Astronomical Twilight 5:55 AM EEST 7:41 PM EEST
Moon 3:47 PM EEST (10/25) 3:02 AM EEST (10/25)
Length of Visible Light 11h 38m
Length of Day
10h 41m
Waxing Gibbous, 82% of the Moon is Illuminated
Oct 25
Waxing Gibbous
Oct 29
Full
Nov 7
Last Quarter
Nov 14
New
Nov 20
First Quarter

Hourly Weather History & Observations

Time (EEST) Temp. Dew Point Humidity Pressure Visibility Wind Dir Wind Speed Gust Speed Precip Events Conditions
12:20 AM 62.6 °F 51.8 °F 68% 30.04 in 6.2 mi NNE 11.5 mph - N/A   Mostly Cloudy
12:50 AM 62.6 °F 51.8 °F 68% 30.04 in 6.2 mi NNE 10.4 mph - N/A   Mostly Cloudy
1:20 AM 62.6 °F 51.8 °F 68% 30.04 in 6.2 mi NNE 8.1 mph - N/A   Scattered Clouds
1:50 AM 62.6 °F 51.8 °F 68% 30.01 in 6.2 mi NNE 6.9 mph - N/A   Scattered Clouds
2:20 AM 62.6 °F 51.8 °F 68% 30.01 in 6.2 mi North 8.1 mph - N/A   Scattered Clouds
2:50 AM 62.6 °F 51.8 °F 68% 30.01 in 6.2 mi NNE 8.1 mph - N/A   Scattered Clouds
3:00 AM 63 °F 52 °F 59% 30.02 in 6 mi NNE 8.1 mph - -   Partly Cloudy
3:20 AM 62.6 °F 53.6 °F 72% 30.01 in 6.2 mi NNE 8.1 mph - N/A   Scattered Clouds
3:50 AM 62.6 °F 53.6 °F 72% 30.01 in 6.2 mi North 6.9 mph - N/A   Scattered Clouds
4:20 AM 62.6 °F 51.8 °F 68% 29.98 in 6.2 mi NNE 5.8 mph - N/A   Scattered Clouds
4:50 AM 62.6 °F 51.8 °F 68% 29.98 in 6.2 mi NNE 6.9 mph - N/A   Scattered Clouds
5:20 AM 62.6 °F 53.6 °F 72% 29.98 in 6.2 mi NNE 6.9 mph - N/A   Scattered Clouds
5:50 AM 62.6 °F 51.8 °F 68% 29.98 in 6.2 mi NNE 6.9 mph - N/A   Scattered Clouds
6:20 AM 62.6 °F 51.8 °F 68% 29.98 in 6.2 mi Variable 8.1 mph - N/A   Scattered Clouds
6:50 AM 62.6 °F 53.6 °F 72% 29.98 in 6.2 mi NNE 6.9 mph - N/A   Scattered Clouds
7:20 AM 64.4 °F 51.8 °F 64% 29.98 in 6.2 mi Variable 5.8 mph - N/A   Scattered Clouds
7:50 AM 64.4 °F 51.8 °F 64% 29.98 in 6.2 mi NNE 6.9 mph - N/A   Scattered Clouds
8:20 AM 64.4 °F 51.8 °F 64% 29.98 in 6.2 mi NE 6.9 mph - N/A   Scattered Clouds
8:50 AM 64.4 °F 51.8 °F 64% 29.98 in 6.2 mi NE 5.8 mph - N/A   Scattered Clouds
9:00 AM 64 °F 52 °F 56% 29.99 in 6 mi NE 5.8 mph - -   Partly Cloudy
9:20 AM 64.4 °F 51.8 °F 64% 29.98 in 6.2 mi Variable 8.1 mph - N/A   Scattered Clouds
9:50 AM 64.4 °F 51.8 °F 64% 29.98 in 6.2 mi NE 9.2 mph - N/A   Scattered Clouds
10:20 AM 66.2 °F 50.0 °F 56% 29.98 in 6.2 mi ENE 10.4 mph - N/A   Scattered Clouds
10:50 AM 68.0 °F 50.0 °F 52% 29.98 in 6.2 mi NE 6.9 mph - N/A   Scattered Clouds
11:20 AM 66.2 °F 50.0 °F 56% 29.98 in 6.2 mi ENE 8.1 mph - N/A   Scattered Clouds
11:50 AM 68.0 °F 50.0 °F 52% 29.98 in 6.2 mi NE 6.9 mph - N/A   Scattered Clouds
12:20 PM 68.0 °F 48.2 °F 49% 29.95 in 6.2 mi NE 8.1 mph - N/A   Scattered Clouds
12:50 PM 68.0 °F 50.0 °F 52% 29.95 in 6.2 mi NE 8.1 mph - N/A   Scattered Clouds
1:20 PM 69.8 °F 50.0 °F 49% 29.95 in 6.2 mi ENE 8.1 mph - N/A   Scattered Clouds
1:50 PM 68.0 °F 50.0 °F 52% 29.92 in 6.2 mi NE 8.1 mph - N/A   Scattered Clouds
2:20 PM 68.0 °F 50.0 °F 52% 29.92 in 6.2 mi NE 9.2 mph - N/A   Scattered Clouds
2:50 PM 68.0 °F 48.2 °F 49% 29.92 in 6.2 mi NE 8.1 mph - N/A   Mostly Cloudy
3:00 PM 67 °F 48 °F 40% 29.93 in 6 mi NE 8.1 mph - -   Mostly Cloudy
3:20 PM 68.0 °F 48.2 °F 49% 29.92 in 6.2 mi NE 9.2 mph - N/A   Scattered Clouds
3:50 PM 68.0 °F 48.2 °F 49% 29.92 in 6.2 mi ENE 8.1 mph - N/A   Scattered Clouds
4:20 PM 69.8 °F 48.2 °F 46% 29.92 in 6.2 mi Variable 5.8 mph - N/A   Scattered Clouds
4:50 PM 66.2 °F 48.2 °F 52% 29.92 in 6.2 mi ENE 8.1 mph - N/A   Scattered Clouds
5:20 PM 66.2 °F 50.0 °F 56% 29.92 in 6.2 mi ENE 8.1 mph - N/A   Scattered Clouds
5:50 PM 66.2 °F 50.0 °F 56% 29.92 in 6.2 mi NE 9.2 mph - N/A   Scattered Clouds
6:20 PM 66.2 °F 50.0 °F 56% 29.92 in 6.2 mi NE 9.2 mph - N/A   Scattered Clouds
6:50 PM 66.2 °F 48.2 °F 52% 29.92 in 6.2 mi Variable 8.1 mph - N/A   Scattered Clouds
7:20 PM 66.2 °F 48.2 °F 52% 29.92 in 6.2 mi Variable 6.9 mph - N/A   Scattered Clouds
7:50 PM 64.4 °F 50.0 °F 59% 29.92 in 6.2 mi NE 5.8 mph - N/A   Scattered Clouds
8:20 PM 64.4 °F 50.0 °F 59% 29.92 in 6.2 mi East 5.8 mph - N/A   Mostly Cloudy
8:50 PM 64.4 °F 50.0 °F 59% 29.92 in 6.2 mi East 4.6 mph - N/A   Mostly Cloudy
9:00 PM 64 °F 49 °F 49% 29.92 in 6 mi East 4.6 mph - -   Partly Cloudy
9:20 PM 64.4 °F 50.0 °F 59% 29.92 in 6.2 mi ENE 5.8 mph - N/A   Mostly Cloudy
9:50 PM 62.6 °F 50.0 °F 63% 29.92 in 6.2 mi East 3.5 mph - N/A   Mostly Cloudy
10:20 PM 62.6 °F 50.0 °F 63% 29.92 in 6.2 mi ENE 3.5 mph - N/A   Mostly Cloudy
10:50 PM 62.6 °F 50.0 °F 63% 29.92 in 6.2 mi ENE 3.5 mph - N/A   Scattered Clouds
11:20 PM 62.6 °F 50.0 °F 63% 29.89 in 6.2 mi NE 4.6 mph - N/A   Scattered Clouds
11:50 PM 62.6 °F 50.0 °F 63% 29.89 in 6.2 mi ENE 3.5 mph - N/A   Scattered Clouds